Regional Weather Roundup
Issued by NWS Wakefield, VA

Home | Current Version | Previous Version | Graphics & Text | Print | Product List | Glossary On
Versions: 1 2 3 4 5 6 7 8 9 10 11 12 13 14 15 16 17 18 19 20 21 22 23 24 25 26 27 28 29 30 31 32 33 34 35 36 37 38 39 40 41 42 43 44 45 46 47 48 49
000
ASUS41 KAKQ 172314
RWRAKQ

REGIONAL WEATHER ROUNDUP
NATIONAL WEATHER SERVICE WAKEFIELD VA
700 PM EDT FRI APR 17 2015

Note: "fair" indicates few or no clouds below 12,000 feet with no
significant weather and/or obstructions to visibility. * = Denotes
station may not report precipitation (e.g., rain,snow,etc.),
thunder or fog.

VAZ042-051-052>054-056-180000-
NORTHERN VIRGINIA

CITY           SKY/WX    TMP DP  RH WIND       PRES   REMARKS
WASH NATIONAL  MOCLDY    74  60  61 S7        29.94R
DULLES         MOCLDY    71  59  65 SW7       29.95R
FORT BELVOIR   MOCLDY    76  57  51 S3        29.94S
QUANTICO       MOCLDY    73  58  59 CALM      29.94S
FREDERICKSBRG* LGT RAIN  69  64  85 CALM      29.94F
STAFFORD*      MOCLDY    69  59  69 SW3       29.99S
WARRENTON      MOCLDY    74  65  72 CALM      29.95S
CULPEPER*      MOCLDY    75  64  69 CALM      29.96S
MANASSAS*      MOCLDY    72  63  73 N5        29.95S
LEESBURG*      MOCLDY    73  61  64 W7        29.96S
WINCHESTER     PTCLDY    73  50  43 W5        29.97S
FRONT ROYAL*   FAIR      70  61  73 CALM      29.95S
LURAY*         FAIR      73  63  68 S3        29.96S
$$

VAZ048-049-060>072-079>083-180000-
CENTRAL AND SOUTH CENTRAL VIRGINIA

CITY           SKY/WX    TMP DP  RH WIND       PRES   REMARKS
RICHMOND       MOCLDY    77  60  55 S6        29.94F
CHESTERFIELD*  NOT AVBL
PETERSBURG*    MOCLDY    75  59  56 S5        29.97R
HANOVER        LGT RAIN  75  58  55 CALM      29.96R
TAPPAHANNOCK*  MOCLDY    76  55  46 CALM      29.95S
QUINTON*       FAIR      76  61  59 S5        29.95S
CHARLOTTSVILLE PTCLDY    68  63  84 CALM      29.95F
GORDONSVILLE*  FAIR      67  64  89 S3        29.95F
ORANGE*        MOCLDY    70  63  78 CALM      29.97F
LOUISA*        CLOUDY    68  64  88 CALM      29.95F
BUMPASS*       CLOUDY    65  63  93 CALM      29.96F
FARMVILLE*     MOCLDY    76  60  57 S8        29.94S
CREWE*         FAIR      75  58  55 SW3       29.95F
FORT PICKETT*  FAIR      73  61  68 S7        29.97S
CHASE CITY*    MOCLDY    76  62  61 CALM      29.97S
CLARKSVILLE*   FAIR      72  63  73 CALM      29.97S
SOUTH HILL*    MOCLDY    73  61  65 CALM      30.03S
LAWRENCEVILLE* FAIR      73  62  67 CALM      29.97S
EMPORIA*       MOCLDY    73  61  64 CALM      29.99S
$$

VAZ088>098-180000-
SOUTHEAST VIRGINIA

CITY           SKY/WX    TMP DP  RH WIND       PRES   REMARKS
NORFOLK        MOCLDY    72  60  66 SE3       29.96F
VIRGINIA BEACH MOCLDY    71  59  65 S10       29.97S
NORFOLK NAVAL  MOCLDY    78  61  55 S5        29.98F
WEST POINT*    PTCLDY    77  59  53 S6        29.96S
SALUDA*        FAIR      72  62  70 S6        29.95S
NEWPORT NEWS   PTCLDY    76  61  59 S8        29.96F
LANGLEY AFB    PTCLDY    72  61  68 SE6       29.95S
FORT EUSTIS    PTCLDY    73  60  64 S5        29.94F
WILLIAMSBURG*  PTCLDY    77  64  65 S3        29.97S
HR EXEC AP*    FAIR      75  61  60 S5        29.98F
FRANKLIN*      MOCLDY   N/A N/A N/A SW3       29.98S
WAKEFIELD      MOCLDY    75  62  64 SW5       29.97S
$$

VAZ020-022-025-037-045-180000-
WEST CENTRAL AND SOUTHWEST VIRGINIA

CITY           SKY/WX    TMP DP  RH WIND       PRES   REMARKS
STAUNTON*      PTCLDY    70  61  72 CALM      29.99S
WAYNESBORO*    FAIR      70  57  63 N3        29.99S
HOT SPRINGS VA PTSUNNY   64  48  55 NW10      30.07S
LYNCHBURG      MOCLDY    74  56  53 SW5       29.98S
DANVILLE       CLOUDY    74  60  61 SW5       29.98R
SOUTH BOSTON*  FAIR      74  58  56 S6        29.97S
MARTINSVILLE   LGT RAIN  70  61  73 CALM      30.01S
ROANOKE        PTSUNNY   76  53  44 N10       29.99S
BLACKSBURG     PTSUNNY   71  49  45 NW6       30.04S
DUBLIN*        CLOUDY    73  56  55 SE3       30.03S
MARION*        CLOUDY    70  53  54 W6        30.06S
HILLSVILLE*    CLOUDY    67  59  73 S3        30.04S
RICHLANDS*     CLOUDY    70  47  44 NW6       30.05S
WISE*          PTSUNNY   68  50  52 N5        30.07S
ABINGDON*      CLOUDY    72  54  53 W3        30.03S
$$

MDZ021>025-VAZ099-100-180000-
SOUTHERN MARYLAND AND THE DELMARVA PENINSULA

CITY           SKY/WX    TMP DP  RH WIND       PRES   REMARKS
PATUXENT RIVER MOCLDY    69  59  70 S8        29.94S
BAY BRIDGE APT   N/A     72  55  56 S6        29.94S
LEONARDTOWN    PTCLDY    73  55  53 CALM      29.96S
DOVER          PTCLDY    73  60  63 SW5       29.90S
GEORGETOWN     CLEAR     72  59  63 S9        29.95S
EASTON         CLEAR     75  59  57 SW6       29.98S
CAMBRIDGE      CLEAR     72  61  68 S5        29.95S
SALISBURY      CLEAR     71  59  65 SW9       29.95S
OCEAN CITY     CLEAR     57  53  86 S7        29.97S
WALLOPS ISLAND CLEAR     64  59  83 S10       29.97S
ACCOMACK*      CLEAR     68  59  73 S7        29.97S
$$

NCZ012>017-030>032-180000-
NORTH CENTRAL AND EASTERN NORTH CAROLINA

CITY           SKY/WX    TMP DP  RH WIND       PRES   REMARKS
ROANOKE RAPIDS CLOUDY    72  63  73 S5        29.98S
RALEIGH        MOCLDY    72  63  73 W6        29.99S
ELIZABETH CITY PTCLDY    72  61  68 S5        29.99R
AHOSKIE*       PTCLDY    72  63  75 CALM      29.98S
EDENTON*       MOCLDY    73  63  69 CALM      29.99S
CURRITUCK*     PTCLDY    75  58  56 CALM      29.99S
KILL DEVIL HLS PTCLDY    70  62  74 S5        29.99R
MANTEO         MOCLDY    69  63  80 S7        30.00S
CAPE HATTERAS  CLEAR     67  61  81 CALM      30.01S
TARBORO*       CLOUDY    75  63  66 CALM      29.99S
GOLDSBORO      MOCLDY    75  65  72 CALM      29.97S
WASHINGTON     MOCLDY    72  64  74 S3        30.00S
GREENVILLE     MOCLDY    73  64  73 SW5       30.01S
NEW BERN       MOCLDY    73  64  73 SE5       30.00S
WILMINGTON     CLOUDY    72  65  78 SE5       30.00S
$$

VAZ048-180000-
ELSEWHERE

CITY           SKY/WX    TMP DP  RH WIND       PRES   REMARKS
HARRISBURG PA  PTCLDY    69  52  54 NW8       29.94R
BALTIMORE      MOCLDY    74  56  53 W6        29.92S
ANNAPOLIS      MOCLDY    69  57  65 S8        29.93S
ANDREWS AFB    LGT RAIN  73  59  60 VRB6      29.94R
PHILADELPHIA   MOCLDY    73  58  59 SW9       29.93S
HENDERSON NC   MOCLDY    73  58  59 S6        29.99S
GREENSBORO     CLOUDY    69  59  70 S7        29.99F
ROCKY MOUNT    CLOUDY    75  65  70 S3        29.99S
$$

VAZ100-180000-
MARINE

STATION/POSITION TIME  TEMP    WIND        PRES    WAVE   SWELL
                       AIR SEA DIR/SP/G            HT/PER HT/PER
                 (UTC) (F)     (DEG/KT/KT) (MB)    (FT/S) (FT/S)
CAPE MAY NJ      2200   63 55  130/  5/  6 1013.6F
LEWES DE         2200   74 49  250/  8/ 10 1013.6F
15NM E FENWICK I 2150   54 49              1014.4    4/ 7
OCEAN-CITY-INLET 2206          210/ 10/ 12   N/A
WACHAPREAGUE VA  2200   62 65  190/  7/  8 1015.1F
THOMAS POINT MD  2300   60 54  190/ 13/ 14 1014.4R
GOOSES REEF MD   2300   58 55  170/ 12/ 14   N/A     1/ 2
COVE POINT MD    2200   58     180/ 14/ 14 1014.0F
SOLOMONS ISLAND  2206      57                N/A
BISHOPS HEAD MD  2200   65 64  170/ 10/ 10 1014.1F
PINEY POINT MD   2200          140/  8/  9   N/A
CAMBRIDGE MD     2200   74 56  190/  6/ 11 1013.9F
LEWISETTA VA     2200   65 60              1013.8S
RAPPAHANNOCK LGT 2200          140/ 13/ 13 1015.0F
STINGRAY PT      2300   60 56  180/  8/ 10 1016.5S   1
YORK RVR RNG VA  2200   59     140/ 14/ 15 1014.2F
YORKTOWN VA      2206   65 58  140/  2/  5 1014.3F
DOMINION TERM VA 2200   70     210/  6/  6 1015.0F
KIPTOPEKE VA     2200      62  160/ 11/ 13   N/A
CHES BAY BRIDGE  2206           90/  8/ 10   N/A
CAPE HENRY VA    2200   63     140/ 10/ 12 1014.0S
CHESAPEAKE LGHT  2200   58     160/ 21/ 22 1015.7F
WILLOUBY STN VA  2200   68     110/  6/  6 1015.6F
S CRANEY ISL VA  2200          170/  5/  6 1014.9F
CAPE HENRY BUOY  2228      51                N/A     4/ 7   2/12
1ST LANDING BUOY 2300   58     130/ 12/ 12 1014.3F   3/ 4
OFFSHORE WE BUOY 2211      49                N/A     4/ 7   2/12
64NM E OF VA BCH 2250   62 58  160/  6/  8 1015.4F   5/ 8   5/ 8
DUCK PIER NC     2200   58 54  150/ 11/ 11 1014.7F
44056 DUCK FRF   2211      54                N/A     4/ 7   2/11
OREGON INLET NC  2200   63 63   90/  6/  7 1015.9F
HATTERAS NC      2206   72 67  150/  3/  4 1015.8R
DIAMOND SHLS NC  2250   71 75  350/  2/  4 1016.2R   6/ 9   7/ 9
CAPE LOOKOUT NC  2300   69      80/  4/  5 1015.4F
$$



USA.gov is the U.S. government's official web portal to all federal, state and local government web resources and services.